Wind_Speed
7 8 8 8 8 8 8 8 8 8 8 8 7 7 8 8 8 8 9 8 8 9 8 8 8 8 7 8 8 8 8 8 8 8 9 9 9 10 10 10 9 10 8
7 8 8 8 8 9 9 8 8 8 8 8 8 8 8 9 9 9 9 9 9 9 9 8 8 8 8 9 9 9 8 9 9 10 10 10 10 10 10 10 10 9 8
7 7 8 9 9 9 9 9 9 8 8 8 8 9 9 9 9 10 9 9 9 9 9 8 8 8 9 9 10 10 9 10 10 10 11 10 10 10 11 11 11 10 11
8 8 8 9 9 9 9 9 9 9 9 9 9 9 9 9 9 10 9 10 9 9 9 9 9 10 10 11 11 11 11 11 11 11 11 11 12 11 11 11 11 12 12
10 10 9 10 9 9 9 9 9 9 9 9 9 9 9 9 9 9 9 9 9 9 10 10 11 11 11 12 12 11 12 12 12 12 13 13 13 12 12 12 13 13 14
11 11 11 10 10 10 10 10 10 10 10 10 10 10 10 10 10 11 11 11 11 11 11 12 12 12 13 13 13 12 13 13 13 13 14 14 14 14 13 14 14 15 16
11 12 12 12 11 11 11 11 11 10 10 11 11 12 12 12 12 12 12 13 13 13 12 12 12 13 13 14 13 13 14 15 15 15 15 15 15 15 15 15 16 17 17
12 12 12 12 12 12 12 12 11 11 11 12 12 13 13 13 13 14 14 14 14 14 13 13 14 14 14 14 14 15 16 16 16 16 16 16 16 16 17 17 17 19 19
13 13 13 13 13 13 13 12 12 12 12 12 13 14 14 15 15 14 14 14 15 14 14 15 15 15 15 15 15 16 16 17 17 17 17 17 17 17 18 19 19 20 21
14 14 14 14 14 14 14 14 13 13 13 14 14 15 15 15 15 15 15 15 15 15 15 15 15 16 16 17 17 17 18 19 19 18 18 18 18 18 19 20 20 21 22
15 16 15 15 16 15 15 15 15 15 15 15 15 16 16 16 16 16 16 17 16 16 15 16 16 17 17 18 19 19 19 20 20 19 19 20 20 20 21 21 22 22 22
17 17 17 17 17 17 16 16 16 16 16 16 17 17 17 17 18 18 18 18 17 17 17 17 17 18 19 19 20 20 20 20 21 22 22 22 22 22 22 22 23 23 23
18 18 18 18 18 18 17 17 17 17 17 18 18 18 19 19 20 19 19 19 18 19 19 19 19 20 20 20 20 21 21 22 22 23 23 23 23 23 23 24 24 24 24
18 19 18 19 19 19 19 19 19 19 19 19 19 20 21 21 21 20 20 20 20 21 21 21 21 21 21 21 22 22 23 23 24 24 24 24 24 24 24 25 25 25 25
19 19 20 20 20 20 20 21 21 20 20 21 21 22 23 23 22 22 22 22 22 21 21 21 22 22 22 22 23 23 23 24 25 25 24 25 24 25 25 26 26 26 25
21 21 21 21 22 22 22 22 23 23 22 22 22 23 23 23 23 23 24 24 23 23 23 24 24 23 23 23 24 24 24 25 25 26 25 25 25 25 25 26 25 26 26
24 24 24 23 23 23 23 24 24 24 24 24 24 24 24 25 24 24 25 25 24 24 25 25 25 24 25 25 25 26 26 26 26 26 25 25 24 24 25 25 26 26 27
26 26 25 25 25 25 26 26 26 26 26 26 27 27 27 26 26 26 26 27 26 26 26 26 26 26 26 26 26 26 27 26 26 25 25 24 25 25 26 27 27 27 27
27 27 27 26 27 27 27 27 28 28 28 28 28 28 28 28 28 28 27 28 28 28 27 27 26 26 26 27 26 26 26 26 26 26 25 25 26 26 27 27 27 27 27
29 29 29 29 28 28 28 28 29 30 30 30 31 31 31 29 29 29 29 29 29 28 28 28 28 28 27 27 27 26 26 26 26 26 26 26 26 27 27 27 27 27 27
30 30 30 30 29 30 30 30 30 30 31 31 32 32 32 31 31 30 30 30 30 30 29 29 29 29 28 28 27 27 27 26 26 26 26 26 27 27 28 28 28 28 27
32 31 31 31 30 30 31 31 31 31 32 32 33 32 32 31 31 30 30 30 30 30 30 30 29 29 29 28 28 28 28 27 27 27 27 27 27 28 28 28 28 28 28
32 32 31 31 32 31 32 32 32 32 33 33 33 32 32 31 31 31 30 30 29 29 29 29 29 29 29 29 29 29 28 28 28 28 27 27 28 28 28 29 29 28 28
33 32 32 32 31 32 32 32 32 32 32 33 33 32 32 31 32 31 31 30 30 29 29 29 29 30 30 30 29 29 29 28 28 28 28 28 28 28 28 28 29 29 28
33 33 33 33 33 33 33 33 33 33 33 33 33 33 33 33 32 31 30 30 30 30 30 31 31 31 30 30 29 29 28 29 29 29 29 29 29 28 28 28 28 29 29
33 34 34 35 33 34 34 33 34 34 34 35 34 33 33 33 33 32 31 31 31 32 32 31 32 32 31 30 30 29 29 29 30 30 29 29 29 29 29 29 29 30 29
Wind_Direction
6 11 12 11 11 7 3 359 0 358 353 348 345 346 349 351 350 347 344 345 346 347 348 347 346 347 350 347 344 339 336 335 333 329 328 325 325 324 319 315 315 312 316
353 353 354 356 357 356 356 353 352 349 348 346 345 346 348 347 347 347 347 347 345 346 349 349 349 348 345 344 342 336 334 333 332 328 324 323 322 326 323 319 317 314 311
333 341 340 341 343 345 348 346 344 346 351 350 349 349 346 342 343 345 345 346 343 346 348 346 343 342 340 337 335 334 333 330 329 327 327 327 326 324 321 321 317 313 314
318 324 330 331 330 333 338 340 339 341 346 347 345 343 338 335 335 337 340 345 348 349 347 341 337 336 333 331 330 330 330 328 326 325 325 323 321 318 316 315 313 310 311
313 315 317 319 319 322 329 331 332 336 339 340 340 337 336 333 333 334 335 334 336 338 335 331 332 330 327 327 327 328 326 324 322 322 320 318 316 313 312 312 311 309 307
305 307 310 309 311 312 319 321 324 327 330 332 335 336 335 331 328 327 325 326 326 325 324 323 323 324 323 322 325 327 327 326 322 319 317 315 314 311 310 309 308 308 306
297 301 303 306 307 309 314 317 321 320 325 327 329 329 327 326 323 319 319 321 322 320 318 318 319 320 320 320 320 321 322 322 321 318 314 313 312 310 308 305 304 304 304
292 294 298 300 301 302 307 312 316 314 317 319 320 322 323 321 317 314 315 319 320 319 316 315 314 315 315 316 317 318 318 318 316 314 312 308 307 308 306 305 304 303 302
285 287 290 294 297 298 301 303 306 307 308 309 311 314 315 315 314 315 317 315 316 316 315 314 311 312 312 313 314 315 317 316 313 311 312 313 309 307 306 306 306 305 303
280 282 285 288 292 292 294 297 300 302 304 305 305 309 311 311 312 312 311 312 312 312 313 311 311 310 310 312 314 314 315 314 311 309 310 311 310 305 303 304 302 303 303
273 278 281 283 286 288 290 292 295 296 298 300 301 304 308 309 309 307 306 307 309 308 308 309 310 310 312 313 313 312 311 311 311 309 308 308 307 304 304 302 301 302 303
274 275 277 279 282 286 288 289 290 293 295 297 299 300 303 306 306 305 303 303 306 306 307 308 308 308 308 308 308 308 308 310 309 308 306 305 304 304 303 303 302 302 301
274 274 278 278 279 284 287 288 288 290 291 293 296 298 301 302 302 300 300 301 302 303 304 304 305 304 304 304 305 307 308 308 307 306 305 303 303 304 303 303 303 302 300
274 272 274 278 280 282 284 286 288 289 290 291 294 297 299 300 299 298 299 299 300 300 303 305 305 304 305 305 304 305 305 306 306 306 305 304 301 302 303 303 301 300 299
276 274 274 277 279 281 283 284 285 287 290 292 293 295 296 297 296 297 298 299 301 303 304 303 304 304 304 303 303 304 304 305 305 306 305 304 303 301 301 301 300 299 299
275 274 273 275 277 278 280 283 284 286 290 291 293 294 295 295 297 298 298 299 300 301 300 300 302 302 302 301 302 303 304 305 305 305 304 304 303 303 303 302 300 300 300
274 274 276 275 275 276 278 281 284 286 288 289 292 293 294 295 297 299 298 297 297 298 299 299 299 301 301 300 300 301 303 303 305 305 303 303 303 304 305 304 303 301 300
273 274 274 274 275 276 278 279 281 283 285 288 290 292 293 295 296 297 297 295 295 297 297 296 297 298 298 298 298 299 301 302 303 303 302 301 302 303 304 305 305 303 300
275 275 272 274 275 276 276 277 279 282 284 287 288 290 291 292 293 293 294 295 295 295 295 295 295 297 297 297 297 298 299 300 301 301 301 300 302 303 304 305 304 302 299
275 275 275 275 274 275 276 277 279 281 283 285 287 289 289 290 291 292 292 293 293 294 295 295 295 295 295 296 296 298 299 299 300 300 300 300 302 303 303 304 304 301 299
273 273 274 274 273 274 276 277 279 281 283 285 286 288 288 289 290 290 290 290 291 292 293 293 294 294 294 296 297 298 299 298 298 297 297 299 300 301 301 302 303 303 301
272 272 272 273 273 273 275 276 279 281 283 284 285 286 286 286 288 289 289 289 291 292 293 293 293 294 294 295 295 296 297 295 295 296 296 298 299 301 301 302 303 304 302
271 272 272 273 273 273 275 278 279 281 282 283 284 285 285 284 286 287 288 288 290 291 291 292 293 293 294 294 294 295 296 294 294 295 295 297 299 300 301 301 302 303 302
274 273 271 273 274 275 277 278 279 280 282 283 283 283 283 284 285 286 287 288 288 289 290 291 292 292 292 292 291 292 293 292 292 293 294 296 298 300 300 301 302 304 302
275 274 273 273 272 275 276 277 278 280 281 282 282 283 284 285 286 287 288 288 289 290 291 291 291 291 291 290 290 289 290 291 290 292 293 295 297 298 300 301 301 303 302
275 274 275 274 274 275 276 277 279 280 282 283 282 282 283 284 286 287 287 287 289 291 291 290 290 290 290 290 290 290 290 291 292 292 293 294 295 297 299 300 300 302 302
Height
5907 5906 5905 5904 5903 5902 5901 5901 5899 5899 5898 5897 5896 5895 5895 5894 5893 5892 5890 5889 5889 5888 5887 5886 5885 5885 5884 5883 5883 5882 5881 5881 5880 5879 5878 5878 5877 5876 5874 5874 5873 5872 5871
5908 5907 5906 5905 5904 5903 5902 5901 5900 5899 5898 5896 5896 5895 5894 5894 5893 5892 5890 5889 5888 5888 5887 5886 5885 5885 5884 5883 5882 5882 5881 5880 5879 5878 5877 5876 5875 5874 5873 5872 5871 5870 5869
5908 5907 5906 5905 5904 5903 5902 5901 5900 5899 5898 5896 5895 5894 5894 5893 5892 5891 5890 5889 5888 5887 5887 5886 5885 5885 5884 5883 5882 5881 5880 5879 5878 5876 5875 5874 5873 5872 5871 5870 5869 5868 5867
5907 5906 5906 5905 5904 5903 5902 5901 5900 5899 5897 5896 5895 5894 5894 5893 5892 5891 5890 5889 5888 5887 5887 5886 5885 5884 5883 5882 5881 5879 5878 5877 5876 5875 5873 5872 5871 5870 5869 5868 5867 5866 5864
5906 5905 5905 5904 5903 5902 5901 5900 5899 5898 5897 5896 5895 5894 5893 5892 5891 5890 5889 5888 5888 5887 5886 5885 5884 5883 5882 5881 5879 5878 5876 5875 5874 5872 5871 5870 5868 5867 5866 5865 5864 5863 5862
5905 5904 5904 5903 5902 5901 5900 5900 5899 5898 5897 5896 5895 5894 5892 5891 5891 5889 5888 5887 5886 5885 5884 5883 5882 5881 5880 5878 5877 5876 5874 5873 5871 5870 5868 5867 5865 5865 5864 5862 5861 5860 5859
5904 5903 5902 5902 5901 5900 5899 5899 5898 5897 5896 5895 5894 5893 5892 5890 5889 5888 5887 5886 5884 5883 5882 5881 5880 5879 5877 5876 5875 5874 5872 5870 5869 5867 5865 5864 5863 5861 5860 5859 5858 5856 5855
5902 5902 5901 5900 5899 5898 5898 5897 5896 5895 5894 5894 5893 5891 5890 5889 5888 5886 5885 5883 5882 5881 5879 5878 5877 5876 5875 5874 5872 5871 5869 5867 5866 5864 5863 5861 5859 5858 5856 5854 5853 5852 5851
5900 5900 5899 5898 5897 5896 5896 5895 5894 5894 5893 5892 5891 5890 5888 5887 5886 5884 5882 5881 5880 5878 5877 5876 5875 5873 5872 5871 5869 5868 5866 5864 5863 5861 5859 5857 5856 5854 5853 5851 5849 5848 5846
5898 5897 5896 5896 5895 5894 5893 5893 5892 5891 5890 5889 5888 5887 5886 5885 5883 5882 5880 5878 5877 5875 5874 5873 5872 5870 5869 5868 5866 5864 5863 5861 5859 5857 5855 5853 5851 5850 5848 5847 5845 5843 5842
5895 5894 5894 5893 5892 5891 5891 5890 5889 5888 5888 5887 5886 5884 5883 5882 5880 5879 5877 5876 5874 5873 5871 5870 5868 5867 5866 5864 5862 5861 5859 5857 5855 5853 5851 5849 5847 5845 5843 5842 5840 5838 5836
5892 5891 5890 5890 5889 5888 5887 5887 5886 5885 5885 5884 5883 5881 5880 5879 5877 5876 5874 5872 5871 5869 5868 5866 5865 5863 5862 5860 5858 5856 5854 5852 5850 5848 5846 5844 5842 5840 5838 5837 5835 5833 5831
5888 5887 5886 5885 5885 5885 5884 5883 5882 5881 5881 5880 5879 5878 5876 5875 5873 5871 5870 5868 5867 5866 5864 5863 5861 5859 5857 5855 5854 5852 5849 5847 5845 5843 5841 5839 5837 5835 5833 5831 5829 5827 5825
5884 5883 5883 5881 5881 5881 5880 5879 5878 5877 5876 5876 5875 5873 5872 5870 5868 5867 5866 5864 5862 5861 5860 5858 5856 5854 5852 5850 5849 5846 5844 5842 5840 5838 5835 5833 5831 5829 5827 5825 5823 5821 5819
5879 5879 5879 5878 5877 5877 5876 5875 5874 5873 5872 5871 5870 5869 5867 5866 5864 5862 5860 5859 5857 5856 5854 5853 5851 5849 5847 5845 5843 5841 5839 5836 5834 5832 5829 5827 5825 5823 5820 5818 5816 5814 5812
5874 5874 5874 5873 5873 5872 5871 5870 5869 5868 5867 5866 5865 5863 5862 5860 5859 5857 5855 5853 5852 5850 5849 5847 5845 5844 5842 5839 5837 5835 5833 5830 5828 5825 5823 5821 5818 5816 5814 5812 5810 5808 5805
5868 5868 5868 5868 5867 5867 5866 5865 5864 5863 5862 5861 5859 5858 5856 5854 5852 5851 5849 5848 5846 5844 5843 5841 5839 5838 5836 5834 5831 5829 5827 5824 5822 5819 5817 5814 5812 5810 5808 5805 5803 5801 5799
5861 5862 5862 5862 5861 5861 5860 5859 5858 5858 5856 5855 5854 5852 5850 5848 5847 5845 5843 5842 5840 5838 5836 5835 5833 5831 5829 5827 5825 5823 5820 5818 5815 5813 5810 5808 5806 5804 5801 5799 5796 5794 5792
5854 5854 5853 5854 5854 5854 5853 5852 5852 5851 5850 5848 5847 5845 5844 5842 5840 5839 5837 5835 5833 5831 5830 5828 5826 5825 5823 5820 5818 5816 5814 5811 5809 5806 5804 5802 5800 5797 5795 5792 5790 5787 5785
5848 5847 5846 5846 5847 5847 5846 5845 5844 5844 5842 5841 5840 5838 5836 5834 5833 5831 5830 5828 5826 5824 5822 5821 5819 5817 5815 5813 5811 5809 5807 5804 5802 5800 5798 5795 5793 5791 5788 5785 5783 5780 5777
5840 5840 5839 5839 5839 5839 5838 5837 5836 5835 5834 5833 5831 5829 5828 5826 5825 5823 5822 5820 5818 5816 5815 5813 5811 5809 5807 5805 5803 5801 5799 5797 5795 5793 5791 5789 5786 5784 5781 5778 5776 5773 5770
5832 5831 5831 5831 5831 5830 5829 5829 5828 5827 5826 5824 5822 5820 5819 5818 5816 5815 5813 5812 5810 5808 5807 5805 5804 5802 5800 5798 5796 5794 5792 5790 5788 5786 5784 5781 5779 5776 5774 5771 5768 5766 5763
5823 5822 5822 5822 5820 5820 5820 5820 5819 5818 5817 5815 5813 5811 5810 5809 5808 5806 5805 5803 5801 5800 5799 5798 5796 5794 5792 5790 5788 5786 5784 5782 5780 5778 5776 5774 5771 5769 5766 5764 5761 5758 5755
5814 5813 5813 5813 5812 5811 5811 5811 5810 5809 5808 5806 5805 5803 5802 5800 5799 5797 5796 5794 5792 5792 5791 5789 5788 5786 5784 5782 5780 5778 5776 5774 5772 5770 5768 5766 5764 5761 5759 5756 5753 5750 5747
5806 5805 5805 5804 5803 5803 5803 5802 5801 5800 5799 5797 5796 5794 5793 5792 5790 5788 5787 5786 5784 5783 5782 5780 5779 5777 5776 5774 5772 5770 5768 5766 5764 5762 5760 5758 5756 5754 5751 5748 5746 5743 5740
5797 5796 5796 5795 5794 5794 5794 5793 5792 5791 5790 5788 5786 5785 5784 5782 5781 5779 5778 5777 5776 5775 5773 5771 5770 5768 5767 5765 5764 5762 5760 5758 5756 5754 5752 5750 5748 5746 5743 5741 5738 5735 5732